GW5142 Weather Reports


time (UTC)temp
F
wind
direction
speed
knots
gust
knots
rain 1hr
in
rain 24hr
in
rain mn
in
humidity
%
barometer
mb
20260510030815 51 127 0.0 0.0 0.00 0.00 0.00 85 1013.5
20260510030312 52 122 0.0 0.0 0.00 0.00 0.00 84 1013.6
20260510025809 52 125 0.0 0.0 0.00 0.00 0.00 84 1013.4
20260510025306 52 125 0.0 0.0 0.00 0.00 0.00 84 1013.6
20260510024803 52 125 0.0 0.0 0.00 0.00 0.00 84 1013.6
20260510024300 52 122 0.0 0.0 0.00 0.00 0.00 84 1013.5
20260510023756 52 125 0.0 0.0 0.00 0.00 0.00 84 1013.4
20260510023253 52 125 0.0 0.0 0.00 0.00 0.00 84 1013.4
20260510022750 53 125 0.0 0.0 0.00 0.00 0.00 83 1013.3
20260510022249 53 125 0.0 0.0 0.00 0.00 0.00 83 1013.4
20260510021749 53 125 0.0 0.0 0.00 0.00 0.00 83 1013.4
20260510021247 53 125 0.0 0.0 0.00 0.00 0.00 83 1013.2
20260510020743 53 125 0.0 0.0 0.00 0.00 0.00 83 1013.3
20260510020242 53 109 0.0 0.0 0.00 0.00 0.00 83 1013.4
20260510015739 53 94 0.0 0.0 0.00 0.00 0.00 83 1013.1
20260510015235 53 94 0.0 0.0 0.00 0.00 0.00 82 1013.0
20260510014730 54 42 0.0 0.0 0.00 0.00 0.00 81 1012.8
20260510014228 54 42 0.0 0.9 0.00 0.00 0.00 79 1012.7
20260510013723 53 75 0.0 0.0 0.00 0.00 0.00 80 1012.7
20260510013219 53 121 0.0 0.0 0.00 0.00 0.00 81 1012.7
20260510012719 53 67 0.0 0.0 0.00 0.00 0.00 81 1012.7
20260510012214 54 112 0.0 0.9 0.00 0.00 0.00 80 1012.3
20260510011709 55 96 0.0 0.0 0.00 0.00 0.00 78 1012.2
20260510011205 55 96 0.0 0.0 0.00 0.00 0.00 77 1012.3
20260510010701 55 84 0.0 0.0 0.00 0.00 0.00 77 1012.5
20260510010158 55 346 0.9 1.7 0.00 0.00 0.00 79 1012.1
20260510005655 55 23 0.0 0.0 0.00 0.00 0.00 79 1012.1
20260510005151 56 45 0.0 0.0 0.00 0.00 0.00 79 1012.1
20260510004650 57 86 0.0 0.0 0.00 0.00 0.00 78 1012.1
20260510004148 58 123 0.0 0.0 0.00 0.00 0.00 77 1011.8
20260510003645 58 57 0.0 0.0 0.00 0.00 0.00 75 1011.8
20260510003140 59 41 0.0 0.0 0.00 0.00 0.00 73 1011.6
20260510002635 60 117 0.0 0.0 0.00 0.00 0.00 70 1011.7
20260510002132 61 359 0.0 0.9 0.00 0.00 0.00 69 1011.5
20260510001629 61 11 0.0 0.0 0.00 0.00 0.00 66 1011.5
20260510001128 62 295 1.7 1.7 0.00 0.00 0.00 63 1011.6
20260510000627 62 117 0.0 0.9 0.00 0.00 0.00 63 1011.6
20260510000126 62 207 0.0 1.7 0.00 0.00 0.00 61 1011.4
20260509235621 63 12 0.9 1.7 0.00 0.00 0.00 61 1011.4
20260509235118 64 295 0.0 2.6 0.00 0.00 0.00 60 1011.4
20260509234614 64 270 0.0 0.9 0.00 0.00 0.00 58 1011.4
20260509234112 65 325 2.6 2.6 0.00 0.00 0.00 55 1011.4
20260509233610 65 312 0.9 3.5 0.00 0.00 0.00 56 1011.3
20260509233107 66 248 0.9 3.5 0.00 0.00 0.00 55 1011.2
20260509232603 67 303 3.5 7.8 0.00 0.00 0.00 53 1011.2
20260509232100 68 316 0.9 2.6 0.00 0.00 0.00 54 1011.3
20260509231556 67 298 3.5 3.5 0.00 0.00 0.00 54 1011.4
20260509231054 67 286 2.6 7.8 0.00 0.00 0.00 53 1011.4
20260509230551 68 11 0.9 3.5 0.00 0.00 0.00 52 1011.4
20260509230048 69 298 0.9 5.2 0.00 0.00 0.00 51 1011.5
20260509225549 68 342 0.9 3.5 0.00 0.00 0.00 54 1011.5
20260509225044 69 305 0.9 1.7 0.00 0.00 0.00 52 1011.2
20260509224540 69 192 0.0 3.5 0.00 0.00 0.00 53 1011.4
20260509224037 68 178 0.0 3.5 0.00 0.00 0.00 54 1011.6
20260509223534 68 319 1.7 6.1 0.00 0.00 0.00 54 1011.4
20260509223032 68 340 2.6 5.2 0.00 0.00 0.00 54 1011.5
20260509222528 69 314 7.0 11.3 0.00 0.00 0.00 53 1011.6
20260509222023 67 345 3.5 3.5 0.00 0.00 0.00 55 1011.6
20260509221519 66 216 2.6 6.1 0.00 0.00 0.00 56 1011.8
20260509221015 68 336 2.6 6.1 0.00 0.00 0.00 53 1011.8
20260509220512 67 330 6.1 7.0 0.00 0.00 0.00 55 1011.8
20260509220008 66 40 0.9 7.8 0.00 0.00 0.00 54 1011.9
20260509215503 65 324 2.6 7.0 0.00 0.00 0.00 56 1011.9
20260509215001 66 325 4.3 6.1 0.00 0.00 0.00 56 1011.8
20260509214458 66 264 2.6 5.2 0.00 0.00 0.00 55 1011.7
20260509213955 66 281 0.9 2.6 0.00 0.00 0.00 53 1011.5
20260509213451 67 330 4.3 7.0 0.00 0.00 0.00 56 1011.5
20260509212948 67 300 4.3 7.0 0.00 0.00 0.00 54 1011.5
20260509212445 67 290 2.6 5.2 0.00 0.00 0.00 55 1011.5
20260509211942 68 353 3.5 7.8 0.00 0.00 0.00 55 1011.6
20260509211437 67 311 2.6 8.7 0.00 0.00 0.00 57 1011.5
20260509210934 66 354 3.5 9.6 0.00 0.00 0.00 53 1011.5
20260509210431 66 0 2.6 7.8 0.00 0.00 0.00 55 1011.3
20260509205926 66 314 1.7 5.2 0.00 0.00 0.00 57 1011.5
20260509205421 67 359 3.5 5.2 0.00 0.00 0.00 56 1011.4
20260509204917 69 298 1.7 6.1 0.00 0.00 0.00 55 1011.4
20260509204413 68 232 0.9 0.9 0.00 0.00 0.00 54 1011.3
20260509203910 69 266 0.9 2.6 0.00 0.00 0.00 51 1011.4
20260509203406 66 329 2.6 7.0 0.00 0.00 0.00 57 1011.4
20260509202904 67 1 3.5 7.8 0.00 0.00 0.00 59 1011.6
20260509202359 67 291 0.9 1.7 0.00 0.00 0.00 53 1011.5
20260509201854 67 184 0.9 3.5 0.00 0.00 0.00 61 1011.6
20260509201350 66 314 0.0 2.6 0.00 0.00 0.00 57 1011.4
20260509200848 67 330 0.0 0.0 0.00 0.00 0.00 58 1011.5
20260509200342 67 344 3.5 5.2 0.00 0.00 0.00 61 1011.5
20260509195840 68 12 1.7 5.2 0.00 0.00 0.00 57 1011.5
20260509195339 66 327 2.6 2.6 0.00 0.00 0.00 59 1011.4
20260509194839 65 218 0.9 5.2 0.00 0.00 0.00 57 1011.5
20260509194336 65 311 2.6 5.2 0.00 0.00 0.00 58 1011.6
20260509193832 65 356 1.7 2.6 0.00 0.00 0.00 61 1011.4
20260509193326 65 145 0.9 6.1 0.00 0.00 0.00 57 1011.4
20260509192823 65 263 0.9 1.7 0.00 0.00 0.00 61 1011.5
20260509192319 64 322 2.6 3.5 0.00 0.00 0.00 60 1011.6
20260509191814 65 307 5.2 8.7 0.00 0.00 0.00 59 1011.5
20260509191310 65 308 1.7 7.0 0.00 0.00 0.00 59 1011.3
20260509190806 65 335 1.7 3.5 0.00 0.00 0.00 59 1011.2
20260509190304 65 337 2.6 3.5 0.00 0.00 0.00 58 1011.4
20260509185801 65 141 0.9 5.2 0.00 0.00 0.00 57 1011.3
20260509185257 65 197 0.9 3.5 0.00 0.00 0.00 55 1011.2
20260509184754 65 352 2.6 7.8 0.00 0.00 0.00 53 1011.3
20260509184252 65 337 4.3 7.8 0.00 0.00 0.00 52 1011.3
20260509183748 66 340 0.9 7.0 0.00 0.00 0.00 56 1011.1
20260509183244 66 299 4.3 7.0 0.00 0.00 0.00 53 1011.3
20260509182739 65 224 3.5 7.0 0.00 0.00 0.00 51 1011.0
20260509182237 65 335 6.1 8.7 0.00 0.00 0.00 52 1011.4
20260509181734 66 165 3.5 6.1 0.00 0.00 0.00 50 1011.3
20260509181231 66 349 4.3 7.0 0.00 0.00 0.00 52 1011.3
20260509180728 66 157 1.7 1.7 0.00 0.00 0.00 50 1011.6
20260509180225 66 321 2.6 12.2 0.00 0.00 0.00 49 1011.3
20260509175721 66 301 2.6 5.2 0.00 0.00 0.00 52 1011.3
20260509175218 66 315 2.6 7.0 0.00 0.00 0.00 53 1011.4
20260509174713 67 121 0.9 2.6 0.00 0.00 0.00 50 1011.4
20260509174209 67 207 0.0 2.6 0.00 0.00 0.00 53 1011.5
20260509173705 67 332 3.5 8.7 0.00 0.00 0.00 51 1011.4
20260509173201 68 326 0.0 1.7 0.00 0.00 0.00 48 1011.3
20260509172657 66 312 1.7 3.5 0.00 0.00 0.00 52 1011.5
20260509172154 64 326 0.0 2.6 0.00 0.00 0.00 57 1011.7
20260509171649 64 167 0.0 0.9 0.00 0.00 0.00 54 1011.6
20260509171146 64 142 0.0 0.0 0.00 0.00 0.00 50 1011.7
20260509170643 65 149 0.0 0.0 0.00 0.00 0.00 51 1011.7
20260509170138 64 146 0.0 0.0 0.00 0.00 0.00 53 1011.8
20260509165637 64 146 0.0 0.0 0.00 0.00 0.00 55 1011.9
20260509165133 63 163 0.0 0.0 0.00 0.00 0.00 55 1011.9
20260509164629 63 191 0.0 0.0 0.00 0.00 0.00 60 1012.0
20260509164125 62 139 0.0 0.0 0.00 0.00 0.00 57 1011.9
20260509163623 62 150 0.0 0.0 0.00 0.00 0.00 58 1012.0
20260509163118 62 147 0.0 0.0 0.00 0.00 0.00 58 1012.0
20260509162616 62 146 0.0 0.0 0.00 0.00 0.00 60 1011.8
20260509162111 62 149 0.9 1.7 0.00 0.00 0.00 60 1012.2
20260509161608 62 137 0.9 1.7 0.00 0.00 0.00 61 1012.0
20260509161108 62 148 0.0 0.0 0.00 0.00 0.00 64 1012.2
20260509160604 61 150 0.0 0.0 0.00 0.00 0.00 62 1012.2
20260509160059 61 149 0.0 0.0 0.00 0.00 0.00 61 1012.3
20260509155556 61 150 0.0 2.6 0.00 0.00 0.00 64 1012.3
20260509155053 61 157 0.0 0.0 0.00 0.00 0.00 63 1012.5
20260509154549 61 151 0.9 0.9 0.00 0.00 0.00 62 1012.4
20260509154046 61 147 0.9 1.7 0.00 0.00 0.00 61 1012.4
20260509153543 61 162 0.0 0.0 0.00 0.00 0.00 62 1012.6
20260509153040 60 157 0.0 0.0 0.00 0.00 0.00 65 1012.5
20260509152536 60 148 0.0 0.0 0.00 0.00 0.00 66 1012.6
20260509152033 60 146 0.9 0.9 0.00 0.00 0.00 64 1012.7
20260509151529 59 110 0.0 0.9 0.00 0.00 0.00 67 1012.8
20260509151027 59 50 0.0 0.0 0.00 0.00 0.00 68 1013.1
20260509150524 59 50 0.0 0.0 0.00 0.00 0.00 71 1013.2
20260509150023 59 141 0.0 0.0 0.00 0.00 0.00 69 1013.0
20260509145518 59 171 0.0 2.6 0.00 0.00 0.00 71 1012.6
20260509145013 59 149 0.0 0.0 0.00 0.00 0.00 67 1012.6
20260509144511 59 149 0.0 0.0 0.00 0.00 0.00 63 1012.6
20260509144008 58 149 0.0 0.0 0.00 0.00 0.00 67 1012.7
20260509143504 58 149 0.0 0.0 0.00 0.00 0.00 66 1012.6
20260509143002 58 149 0.0 0.0 0.00 0.00 0.00 68 1013.0
20260509142458 58 149 0.0 0.0 0.00 0.00 0.00 65 1013.0
20260509141953 57 149 0.0 0.0 0.00 0.00 0.00 68 1012.7
20260509141450 57 149 0.0 0.0 0.00 0.00 0.00 70 1012.6
20260509140947 56 149 0.0 0.0 0.00 0.00 0.00 72 1012.8
20260509140443 56 149 0.0 0.0 0.00 0.00 0.00 71 1013.1
20260509135942 56 148 0.0 0.0 0.00 0.00 0.00 71 1012.8
20260509135438 56 148 0.0 0.0 0.00 0.00 0.00 72 1013.0
20260509134936 55 148 0.0 0.0 0.00 0.00 0.00 71 1013.0
20260509134433 55 148 0.0 0.0 0.00 0.00 0.00 72 1013.0
20260509133931 54 149 0.0 0.0 0.00 0.00 0.00 75 1013.1
20260509133427 54 16 0.0 0.0 0.00 0.00 0.00 76 1013.2
20260509132925 53 16 0.0 0.0 0.00 0.00 0.00 76 1013.0
20260509132423 53 15 0.0 0.0 0.00 0.00 0.00 78 1013.2
20260509131920 52 15 0.0 0.0 0.00 0.00 0.00 78 1013.2
20260509131417 52 15 0.0 0.0 0.00 0.00 0.00 78 1012.7
20260509130914 51 15 0.0 0.0 0.00 0.00 0.00 80 1013.2
20260509130409 51 17 0.0 0.0 0.00 0.00 0.00 81 1013.2
20260509125906 51 18 0.0 0.0 0.00 0.00 0.00 82 1013.1
20260509125403 51 17 0.0 0.0 0.00 0.00 0.00 81 1013.0
20260509124859 51 32 0.0 0.0 0.00 0.00 0.00 81 1013.0
20260509124356 51 32 0.0 0.0 0.00 0.00 0.00 81 1012.8
20260509123854 51 32 0.0 0.0 0.00 0.00 0.00 82 1012.8
20260509123351 50 32 0.0 0.0 0.00 0.00 0.00 84 1013.0
20260509122846 50 32 0.0 0.0 0.00 0.00 0.00 83 1013.1
20260509122343 50 31 0.0 0.0 0.00 0.00 0.00 84 1012.8
20260509121840 50 31 0.0 0.0 0.00 0.00 0.00 84 1012.7
20260509121337 50 31 0.0 0.0 0.00 0.00 0.00 84 1013.1
20260509120835 50 32 0.0 0.0 0.00 0.00 0.00 83 1012.8
20260509120333 51 32 0.0 0.0 0.00 0.00 0.00 81 1013.0
20260509115831 50 32 0.0 0.0 0.00 0.00 0.00 79 1013.0
20260509115328 50 32 0.0 0.0 0.00 0.00 0.00 80 1013.2
20260509114826 50 32 0.0 0.0 0.00 0.00 0.00 81 1013.0
20260509114324 50 32 0.0 0.0 0.00 0.00 0.00 82 1012.8
20260509113823 50 32 0.0 0.0 0.00 0.00 0.00 83 1013.3
20260509113319 50 32 0.0 0.0 0.00 0.00 0.00 84 1013.2
20260509112816 49 31 0.0 0.0 0.00 0.00 0.00 83 1013.2
20260509112314 49 31 0.0 0.0 0.00 0.00 0.00 83 1013.1
20260509111810 49 31 0.0 0.0 0.00 0.00 0.00 84 1013.1
20260509111307 49 31 0.0 0.0 0.00 0.00 0.00 84 1013.0
20260509110805 49 31 0.0 0.0 0.00 0.00 0.00 84 1013.0
20260509110301 49 31 0.0 0.0 0.00 0.00 0.00 85 1013.2
20260509105759 49 31 0.0 0.0 0.00 0.00 0.00 85 1013.0
20260509105257 49 31 0.0 0.0 0.00 0.00 0.00 85 1013.1
20260509104753 49 31 0.0 0.0 0.00 0.00 0.00 85 1013.1
20260509104250 48 31 0.0 0.0 0.00 0.00 0.00 86 1012.8
20260509103748 49 31 0.0 0.0 0.00 0.00 0.00 86 1013.0
20260509103245 48 31 0.0 0.0 0.00 0.00 0.00 86 1012.8
20260509102744 48 31 0.0 0.0 0.00 0.00 0.00 85 1012.8
20260509102240 49 32 0.0 0.0 0.00 0.00 0.00 85 1012.7
20260509101737 49 352 0.0 0.0 0.00 0.00 0.00 85 1012.8
20260509101233 49 345 0.0 0.0 0.00 0.00 0.00 85 1013.1
20260509100730 49 345 0.0 0.0 0.00 0.00 0.00 85 1012.8
20260509100228 49 345 0.0 0.0 0.00 0.00 0.00 84 1013.0
20260509095724 48 345 0.0 0.0 0.00 0.00 0.00 86 1012.8
20260509095221 48 345 0.0 0.0 0.00 0.00 0.00 86 1012.8
20260509094718 48 345 0.0 0.0 0.00 0.00 0.00 85 1013.1
20260509094215 49 345 0.0 0.0 0.00 0.00 0.00 84 1013.0
20260509093713 49 345 0.0 0.0 0.00 0.00 0.00 83 1012.7
20260509093210 49 345 0.0 0.0 0.00 0.00 0.00 83 1012.8
20260509092708 49 346 0.0 0.0 0.00 0.00 0.00 84 1012.8
20260509092206 49 345 0.0 1.7 0.00 0.00 0.00 84 1013.0
20260509091704 49 347 0.0 0.0 0.00 0.00 0.00 83 1012.8
20260509091200 50 347 0.0 0.0 0.00 0.00 0.00 83 1012.7
20260509090658 50 347 0.0 0.0 0.00 0.00 0.00 83 1012.7
20260509090155 49 347 0.0 0.0 0.00 0.00 0.00 82 1012.8
20260509085652 49 347 0.0 0.0 0.00 0.00 0.00 83 1012.8
20260509085148 49 347 0.0 0.0 0.00 0.00 0.00 84 1012.8
20260509084646 49 347 0.0 0.0 0.00 0.00 0.00 83 1012.8
20260509084143 49 347 0.0 0.0 0.00 0.00 0.00 83 1012.8
20260509083640 49 347 0.0 0.0 0.00 0.00 0.00 83 1013.2
20260509083136 49 347 0.0 0.0 0.00 0.00 0.00 82 1012.8
20260509082634 49 347 0.0 0.0 0.00 0.00 0.00 83 1013.2
20260509082130 49 347 0.0 1.7 0.00 0.00 0.00 83 1013.1
20260509081627 49 31 0.0 0.0 0.00 0.00 0.00 82 1013.1
20260509081125 49 31 0.0 0.0 0.00 0.00 0.00 84 1013.0
20260509080623 50 71 0.0 0.0 0.00 0.00 0.00 82 1013.1
20260509080120 50 96 0.0 0.0 0.00 0.00 0.00 81 1012.8
20260509075618 50 48 0.0 0.0 0.00 0.00 0.00 82 1012.8
20260509075116 50 104 0.0 0.0 0.00 0.00 0.00 83 1012.7
20260509074612 50 104 0.0 0.0 0.00 0.00 0.00 82 1012.8
20260509074109 50 103 0.0 0.0 0.00 0.00 0.00 82 1012.7
20260509073606 49 358 0.0 0.0 0.00 0.00 0.00 82 1012.8
20260509073102 49 5 0.0 0.0 0.00 0.00 0.00 81 1012.6
20260509072559 49 5 0.0 0.0 0.00 0.00 0.00 82 1012.7
20260509072055 49 5 0.0 0.0 0.00 0.00 0.00 82 1012.7
20260509071552 49 34 0.0 0.0 0.00 0.00 0.00 81 1012.6
20260509071050 50 69 0.0 0.0 0.00 0.00 0.00 82 1012.6
20260509070547 50 113 0.0 0.0 0.00 0.00 0.00 82 1012.6
20260509070043 50 85 0.0 0.0 0.00 0.00 0.00 82 1012.8
20260509065538 50 59 0.0 0.0 0.00 0.00 0.00 82 1012.8
20260509065035 50 59 0.0 0.0 0.00 0.00 0.00 83 1012.7
20260509064533 50 130 0.0 0.0 0.00 0.00 0.00 82 1012.7
20260509064031 50 130 0.0 0.0 0.00 0.00 0.00 82 1012.8
20260509063531 51 130 0.0 0.0 0.00 0.00 0.00 81 1012.8
20260509063029 51 130 0.0 0.0 0.00 0.00 0.00 81 1012.7
20260509062526 51 130 0.0 0.0 0.00 0.00 0.00 78 1012.7
20260509062024 51 130 0.0 0.0 0.00 0.00 0.00 79 1012.7
20260509061520 51 130 0.0 0.0 0.00 0.00 0.00 79 1012.8
20260509061018 51 130 0.0 0.0 0.00 0.00 0.00 79 1012.8
20260509060515 51 130 0.0 0.0 0.00 0.00 0.00 80 1013.0
20260509060011 51 130 0.0 0.0 0.00 0.00 0.00 79 1013.1
20260509055506 51 130 0.0 0.0 0.00 0.00 0.00 78 1013.1
20260509055003 51 129 0.0 0.0 0.00 0.00 0.00 79 1013.3
20260509054459 51 130 0.0 0.0 0.00 0.00 0.00 79 1013.2
20260509053958 51 129 0.0 0.0 0.00 0.00 0.00 78 1013.3
20260509053455 51 129 0.0 0.0 0.00 0.00 0.00 79 1013.3
20260509052952 51 129 0.0 0.0 0.00 0.00 0.00 79 1013.5
20260509052450 51 129 0.0 0.0 0.00 0.00 0.00 79 1013.4
20260509051947 52 133 0.0 0.0 0.00 0.00 0.00 79 1013.5
20260509051445 52 133 0.0 0.0 0.00 0.00 0.00 78 1013.6
20260509050942 51 133 0.0 0.0 0.00 0.00 0.00 78 1013.7
20260509050438 51 133 0.0 0.0 0.00 0.00 0.00 78 1013.5
20260509045935 51 133 0.0 0.0 0.00 0.00 0.00 79 1013.6
20260509045433 52 133 0.0 0.0 0.00 0.00 0.00 78 1013.7
20260509044929 52 129 0.0 0.0 0.00 0.00 0.00 78 1013.5
20260509044427 52 129 0.0 0.0 0.00 0.00 0.00 79 1013.6
20260509043924 52 129 0.0 0.0 0.00 0.00 0.00 79 1013.5
20260509043420 52 130 0.0 0.0 0.00 0.00 0.00 77 1013.5
20260509042916 52 113 0.0 0.0 0.00 0.00 0.00 77 1013.7
20260509042413 52 130 0.0 0.0 0.00 0.00 0.00 78 1013.7
20260509041909 52 129 0.0 0.0 0.00 0.00 0.00 78 1013.8
20260509041406 52 130 0.0 0.0 0.00 0.00 0.00 77 1013.8
20260509040904 52 123 0.0 0.0 0.00 0.00 0.00 78 1013.9
20260509040402 52 132 0.0 0.0 0.00 0.00 0.00 78 1013.8
20260509035858 52 131 0.0 0.0 0.00 0.00 0.00 78 1013.8
20260509035355 52 132 0.0 0.0 0.00 0.00 0.00 79 1013.8
20260509034852 52 132 0.0 0.0 0.00 0.00 0.00 78 1014.0
20260509034349 52 129 0.0 0.0 0.00 0.00 0.00 78 1014.0
20260509033846 52 140 0.0 0.0 0.00 0.00 0.00 77 1013.9
20260509033344 52 129 0.0 0.0 0.00 0.00 0.00 77 1013.7
20260509032840 52 123 0.0 0.0 0.00 0.00 0.00 78 1013.9
20260509032337 53 125 0.0 0.0 0.00 0.00 0.00 78 1014.0
20260509031836 53 125 0.0 0.0 0.00 0.00 0.00 79 1014.0
20260509031332 52 127 0.0 0.0 0.00 0.00 0.00 77 1013.8